CAPE
0 0 0 0 0 0 0 2 0 5 12 6 2 26 0 0 54 70 176 132 52 37 4 0 0 0 0 0 0 0 0 0 0 1 0 0 0 6 3 11 25 53 162 229
0 0 0 0 0 0 0 0 0 21 17 0 24 39 0 0 76 112 170 85 0 0 0 0 0 0 0 0 0 0 0 0 0 0 0 0 0 9 32 6 38 15 171 248
0 0 0 0 0 0 0 0 0 9 16 8 0 13 23 33 91 78 136 105 12 21 12 0 0 0 0 0 0 0 0 0 0 0 0 0 13 45 0 7 0 21 317 302
0 0 0 0 0 0 0 0 1 1 0 1 5 0 43 77 96 107 56 84 56 66 38 0 0 0 0 0 0 0 0 0 0 0 0 0 0 33 1 0 1 256 319 285
0 0 0 0 0 0 0 0 1 0 0 0 0 1 17 128 119 14 38 63 75 125 50 19 0 0 0 0 0 0 0 0 0 0 0 0 8 31 0 0 0 284 383 371
0 0 0 0 0 0 0 3 0 0 0 0 0 0 4 1 0 13 5 91 75 80 88 17 41 1 35 18 0 0 0 0 0 0 0 37 129 146 53 0 0 217 262 296
0 0 0 0 0 0 0 0 0 0 0 0 12 12 0 1 0 17 25 46 83 105 133 94 113 53 79 99 79 7 0 0 0 0 0 60 190 168 149 40 31 110 218 277
0 0 0 0 0 0 0 0 0 0 0 0 0 6 0 0 0 0 3 58 93 107 145 173 195 197 205 203 117 126 96 93 78 135 146 183 291 291 249 45 293 225 154 270
0 0 0 0 0 0 0 0 0 36 8 0 1 18 3 0 0 0 3 11 147 145 166 137 217 217 175 274 256 245 238 184 214 240 282 262 167 209 313 274 407 345 354 309
0 0 0 0 0 0 0 0 8 17 0 0 6 55 20 5 0 0 0 0 36 175 180 126 107 125 147 259 308 349 293 310 288 401 503 492 429 330 513 703 535 576 495 349
0 0 0 0 0 0 0 0 0 28 37 0 0 1 2 0 0 0 0 0 37 66 97 111 122 139 177 162 235 413 344 225 403 369 381 586 774 796 640 605 673 567 441 300
0 0 0 0 0 0 0 0 0 3 29 51 18 2 4 4 0 0 0 0 0 129 159 149 198 155 210 265 185 242 307 342 398 558 443 559 541 430 734 395 676 615 395 292
0 0 0 0 0 0 0 0 0 20 84 25 11 3 39 36 29 0 0 0 0 0 57 216 242 334 429 460 509 289 289 288 277 343 679 718 507 575 649 588 603 428 369 251
0 0 0 0 0 3 0 0 0 0 12 16 9 0 42 22 26 19 19 2 0 0 0 245 332 469 523 620 956 764 627 592 502 671 799 893 863 844 894 725 776 412 335 298
0 0 0 0 0 0 13 5 0 2 0 13 0 8 4 31 17 30 14 0 0 0 0 32 352 503 622 750 1027 1054 1066 1115 986 1088 1122 1080 1048 1017 753 822 869 469 294 240
1 0 0 0 0 0 0 0 12 20 24 37 9 0 1 22 30 17 0 1 0 0 0 0 0 597 855 1004 1029 1030 1059 1081 1112 1111 1064 1035 1079 1010 736 586 611 206 142 135
16 0 0 0 0 0 0 0 0 0 13 3 0 0 6 35 24 15 3 0 0 0 0 0 52 839 957 1021 1083 1058 925 904 979 1010 959 885 755 764 459 290 143 59 16 0
13 0 0 0 0 0 0 0 0 1 2 11 9 0 0 1 3 20 20 13 0 0 7 110 562 740 814 860 982 973 760 622 611 593 598 488 325 191 137 33 0 0 0 0
1 24 0 0 0 0 0 0 0 0 0 1 0 0 0 0 0 1 5 8 12 27 65 411 697 789 766 806 816 769 747 454 216 221 248 164 114 22 0 0 0 0 0 0
20 27 29 46 0 0 0 0 0 0 0 0 0 0 0 0 4 8 1 19 23 41 91 194 322 436 550 518 441 414 299 181 145 140 59 6 0 0 0 0 0 0 0 0
9 4 1 0 0 0 0 0 6 1 0 0 1 0 0 0 1 1 6 15 4 11 14 30 42 101 226 282 184 39 0 10 0 0 0 0 0 0 0 0 0 0 0 0
11 5 3 0 0 0 22 0 0 0 0 0 13 21 28 15 21 4 7 1 0 0 0 0 0 0 0 0 0 0 0 0 0 0 0 0 0 0 0 0 0 0 0 0
0 77 4 0 0 5 14 63 17 21 71 68 75 83 80 88 60 26 9 0 0 0 0 0 0 0 0 0 0 0 0 0 0 0 0 0 0 0 0 0 0 0 0 0
40 139 104 50 0 0 0 9 31 13 10 48 81 68 91 118 64 21 13 10 0 0 0 0 0 0 0 0 0 0 0 0 0 0 0 0 0 0 0 0 0 0 0 0
109 102 60 14 0 3 0 0 2 3 0 25 17 47 57 57 43 14 16 9 0 0 0 0 0 0 0 0 0 0 0 0 0 0 0 0 0 0 0 0 0 0 0 0
81 66 80 46 93 89 42 48 3 0 0 0 9 12 32 22 24 7 10 11 0 0 0 0 0 0 0 0 0 0 0 0 0 0 0 0 0 0 0 0 0 0 0 0
CIN
0 0 0 0 0 0 0 -4 -2 -5 -7 -11 -72 -90 0 0 -93 -126 -35 -133 -159 -148 -181 0 0 0 0 0 0 0 0 0 0 0 0 0 0 -84 -33 -80 -55 -71 -49 -52
0 0 0 0 0 0 0 -1 0 -11 -13 -12 -34 -94 0 -21 -90 -148 -103 -110 0 0 0 0 0 0 0 0 0 0 0 0 0 0 0 0 0 -38 -31 -12 -42 -31 -39 -30
0 0 0 0 0 -2 0 0 0 -11 -11 -7 -3 -141 -127 -35 -91 -126 -106 -145 -149 -260 -223 0 0 0 0 0 0 0 0 0 0 0 0 0 -17 -19 0 -36 0 -81 -48 -25
0 0 0 0 0 0 0 0 -7 -7 -3 -4 -10 0 -122 -87 -111 -214 -166 -147 -80 -245 -270 0 0 0 0 0 0 0 0 0 0 0 0 0 0 -56 -9 0 -21 -39 -27 -16
0 0 0 0 0 0 0 -1 -4 0 0 0 0 -21 -19 -78 -52 -28 -68 -48 -92 -324 -300 -180 -20 -2 0 0 0 0 0 0 0 0 0 0 -74 -48 0 0 0 -27 -29 -28
0 0 0 0 0 0 0 -8 -1 0 0 0 0 -2 -19 -8 -14 -41 -47 -84 -94 -96 -241 -211 -141 -82 -171 -100 0 0 0 0 0 0 0 -70 -26 -24 -28 -15 0 -55 -37 -22
0 0 0 0 -2 -1 0 -1 0 0 0 0 -34 -10 -1 -10 0 -60 -134 -83 -40 -54 -99 -165 -175 -241 -201 -186 -155 -96 0 0 0 0 0 -81 -20 -40 -67 -107 -77 -74 -41 -32
0 0 0 0 0 0 0 0 0 0 0 0 0 -26 -2 0 0 0 -48 -53 -17 -87 -143 -310 -211 -275 -232 -200 -183 -145 -130 -122 -117 -102 -77 -93 -36 -110 -53 -35 -33 -12 -53 -43
0 0 0 0 0 0 0 0 -4 -8 -4 -29 -74 -51 -21 0 0 -1 -10 -12 -20 -21 -81 -211 -196 -233 -220 -196 -179 -149 -127 -114 -97 -110 -85 -56 -87 -123 -68 -36 -21 -18 -36 -32
0 0 0 0 0 0 0 0 -2 -83 0 0 -30 -34 -4 -13 -2 0 0 0 -56 -23 -12 -51 -82 -80 -151 -227 -193 -157 -143 -195 -181 -107 -82 -68 -51 -77 -78 -30 -32 -31 -36 -59
0 0 0 0 0 0 0 -1 0 -3 -13 0 0 -11 -9 -7 0 0 0 0 -48 -50 -36 -30 -25 -48 -57 -18 -139 -173 -122 -35 -58 -91 -98 -74 -31 -17 -26 -80 -59 -56 -41 -71
0 0 0 0 0 0 0 0 0 -3 -16 -25 -20 -5 -11 -18 0 0 0 0 0 -47 -61 -80 -60 -44 -52 -36 -28 -212 -245 -238 -131 -87 -68 -49 -30 -18 -6 -37 -45 -51 -76 -81
0 0 0 0 0 0 0 0 0 -24 -5 -2 0 -30 -20 -5 -12 -3 0 0 0 0 -59 -79 -81 -76 -74 -75 -52 -45 -83 -39 -43 -190 -74 -53 -33 -32 -15 -67 -46 -58 -67 -67
0 0 0 0 0 -9 0 0 0 -4 -4 -4 -5 0 -43 -18 -2 -14 -11 -5 0 0 0 -45 -75 -82 -93 -95 -83 -63 -78 -70 -93 -70 -14 -61 -53 -46 -29 -29 -20 -59 -60 -53
-3 0 0 0 0 -2 -9 -6 -4 -3 0 -15 0 -6 -32 -22 -24 -24 -11 0 0 0 0 -40 -40 -51 -64 -118 -133 -74 -35 -27 -31 -27 -67 -81 -63 -37 -57 -33 -17 -52 -65 -58
-8 0 0 0 0 0 -1 0 -1 -6 -3 -8 -17 0 -38 -26 -21 -30 0 -38 0 0 0 0 0 -60 -69 -85 -102 -109 -93 -90 -88 -67 -83 -93 -56 -27 -50 -54 -42 -90 -85 -50
-30 0 0 0 0 0 0 0 0 -1 -11 -6 0 0 -10 -8 -5 -12 -37 0 -3 0 0 0 -78 -68 -44 -40 -53 -84 -91 -77 -76 -71 -91 -93 -93 -61 -83 -91 -74 -99 -64 0
-36 0 0 0 0 0 0 0 0 -2 -2 -3 -3 0 0 -7 -25 -3 -13 -10 -3 -63 -102 -106 -113 -99 -68 -89 -74 -85 -102 -106 -103 -91 -86 -92 -89 -95 -92 -83 0 0 0 0
-1 -15 0 0 0 0 0 0 0 0 0 -6 0 0 0 0 0 -26 -15 -71 -104 -115 -153 -163 -106 -74 -70 -68 -52 -66 -83 -100 -128 -127 -107 -111 -93 -142 -3 0 0 0 0 0
-18 0 -29 -14 0 0 0 0 -2 -7 0 0 0 0 0 0 -28 -18 -16 -159 -135 -179 -206 -163 -120 -76 -52 -68 -72 -88 -98 -107 -99 -94 -127 -33 0 0 0 0 0 0 0 0
-1 -11 -1 0 0 0 -1 0 -46 -2 0 0 -12 0 0 0 -3 -11 -11 -181 -110 -185 -182 -176 -143 -107 -67 -44 -54 -109 0 -63 0 0 0 0 0 0 0 0 0 0 0 0
-11 -11 -3 0 0 0 -10 0 0 0 0 0 -69 -42 -27 -7 -11 -41 -191 -71 0 0 0 0 0 0 0 0 0 0 0 0 0 0 0 0 0 0 0 0 0 0 0 0
0 -5 -10 0 0 -15 -32 -52 -37 -16 -50 -100 -63 -39 -28 -13 -5 -11 -9 0 0 0 0 0 0 0 0 0 0 0 0 0 0 0 0 0 0 0 0 0 0 0 0 0
-28 -86 -27 -47 0 0 -1 -31 -38 -11 -4 -54 -52 -22 -27 -32 -36 -9 -12 -30 0 0 0 0 0 0 0 0 0 0 0 0 0 0 0 0 0 0 0 0 0 0 0 0
-7 -64 -100 -85 0 -30 0 0 -5 -1 -1 -21 -21 -20 -32 -98 -60 -26 -35 -27 0 0 0 0 0 0 0 0 0 0 0 0 0 0 0 0 0 0 0 0 0 0 0 0
-19 -22 -44 -27 -22 -12 -5 -7 -39 0 0 0 -9 -3 -29 -53 -63 -53 -50 -66 0 -9 0 0 0 0 0 0 0 0 0 0 0 0 0 0 0 0 0 0 0 0 0 0
Wind_Speed
nan nan nan nan nan nan nan nan nan nan nan nan nan nan nan nan nan nan 29 26 nan nan nan nan nan nan nan nan nan nan nan nan nan nan nan nan nan nan nan nan nan nan 5 6
nan nan nan nan nan nan nan nan nan nan nan nan nan nan nan nan nan 20 30 nan nan nan nan nan nan nan nan nan nan nan nan nan nan nan nan nan nan nan nan nan nan nan 6 6
nan nan nan nan nan nan nan nan nan nan nan nan nan nan nan nan nan nan 26 28 nan nan nan nan nan nan nan nan nan nan nan nan nan nan nan nan nan nan nan nan nan nan 8 13
nan nan nan nan nan nan nan nan nan nan nan nan nan nan nan nan nan 24 nan nan nan nan nan nan nan nan nan nan nan nan nan nan nan nan nan nan nan nan nan nan nan 6 12 13
nan nan nan nan nan nan nan nan nan nan nan nan nan nan nan 33 31 nan nan nan nan 26 nan nan nan nan nan nan nan nan nan nan nan nan nan nan nan nan nan nan nan 16 14 17
nan nan nan nan nan nan nan nan nan nan nan nan nan nan nan nan nan nan nan nan nan nan nan nan nan nan nan nan nan nan nan nan nan nan nan nan 15 18 nan nan nan 14 12 20
nan nan nan nan nan nan nan nan nan nan nan nan nan nan nan nan nan nan nan nan nan 24 25 nan 28 nan nan nan nan nan nan nan nan nan nan nan 19 16 20 nan nan 20 18 21
nan nan nan nan nan nan nan nan nan nan nan nan nan nan nan nan nan nan nan nan nan 31 24 24 30 27 26 30 26 25 nan nan nan 20 20 12 15 17 18 nan 15 20 22 24
nan nan nan nan nan nan nan nan nan nan nan nan nan nan nan nan nan nan nan nan 33 34 32 34 33 34 30 29 31 30 26 21 17 15 17 15 16 13 12 18 18 22 23 24
nan nan nan nan nan nan nan nan nan nan nan nan nan nan nan nan nan nan nan nan nan 27 33 32 33 31 30 28 25 28 25 29 28 24 20 20 19 21 22 21 24 30 28 31
nan nan nan nan nan nan nan nan nan nan nan nan nan nan nan nan nan nan nan nan nan nan nan 28 27 28 27 25 23 24 33 25 8 22 20 26 29 29 24 31 20 33 33 34
nan nan nan nan nan nan nan nan nan nan nan nan nan nan nan nan nan nan nan nan nan 25 18 17 27 33 32 31 33 30 30 32 23 22 23 22 34 50 23 26 31 34 35 33
nan nan nan nan nan nan nan nan nan nan nan nan nan nan nan nan nan nan nan nan nan nan nan 19 19 21 27 34 44 38 33 31 24 19 19 25 28 39 38 42 40 40 36 36
nan nan nan nan nan nan nan nan nan nan nan nan nan nan nan nan nan nan nan nan nan nan nan 24 21 18 21 29 37 41 37 37 36 32 39 40 41 46 47 43 41 37 36 39
nan nan nan nan nan nan nan nan nan nan nan nan nan nan nan nan nan nan nan nan nan nan nan nan 27 23 18 27 32 38 39 43 44 45 45 46 47 49 49 45 43 43 43 43
nan nan nan nan nan nan nan nan nan nan nan nan nan nan nan nan nan nan nan nan nan nan nan nan nan 29 26 24 30 37 40 42 43 45 45 46 48 44 45 45 45 43 43 44
nan nan nan nan nan nan nan nan nan nan nan nan nan nan nan nan nan nan nan nan nan nan nan nan nan 39 35 33 36 38 40 41 42 44 44 44 43 42 42 44 43 nan nan nan
nan nan nan nan nan nan nan nan nan nan nan nan nan nan nan nan nan nan nan nan nan nan nan 31 36 40 40 39 40 40 43 45 43 41 42 43 43 42 43 nan nan nan nan nan
nan nan nan nan nan nan nan nan nan nan nan nan nan nan nan nan nan nan nan nan nan nan nan 36 35 39 38 41 41 44 40 41 43 43 42 41 46 nan nan nan nan nan nan nan
nan nan nan nan nan nan nan nan nan nan nan nan nan nan nan nan nan nan nan nan nan nan nan 38 39 39 41 38 40 40 40 42 42 42 nan nan nan nan nan nan nan nan nan nan
nan nan nan nan nan nan nan nan nan nan nan nan nan nan nan nan nan nan nan nan nan nan nan nan nan 41 39 40 42 nan nan nan nan nan nan nan nan nan nan nan nan nan nan nan
nan nan nan nan nan nan nan nan nan nan nan nan nan nan nan nan nan nan nan nan nan nan nan nan nan nan nan nan nan nan nan nan nan nan nan nan nan nan nan nan nan nan nan nan
nan nan nan nan nan nan nan nan nan nan nan nan nan nan nan nan nan nan nan nan nan nan nan nan nan nan nan nan nan nan nan nan nan nan nan nan nan nan nan nan nan nan nan nan
nan 27 31 nan nan nan nan nan nan nan nan nan nan nan nan 45 nan nan nan nan nan nan nan nan nan nan nan nan nan nan nan nan nan nan nan nan nan nan nan nan nan nan nan nan
49 50 nan nan nan nan nan nan nan nan nan nan nan nan nan nan nan nan nan nan nan nan nan nan nan nan nan nan nan nan nan nan nan nan nan nan nan nan nan nan nan nan nan nan
nan nan nan nan nan nan nan nan nan nan nan nan nan nan nan nan nan nan nan nan nan nan nan nan nan nan nan nan nan nan nan nan nan nan nan nan nan nan nan nan nan nan nan nan
Wind_Direction
nan nan nan nan nan nan nan nan nan nan nan nan nan nan nan nan nan nan 18 355 nan nan nan nan nan nan nan nan nan nan nan nan nan nan nan nan nan nan nan nan nan nan 132 176
nan nan nan nan nan nan nan nan nan nan nan nan nan nan nan nan nan 8 14 nan nan nan nan nan nan nan nan nan nan nan nan nan nan nan nan nan nan nan nan nan nan nan 339 283
nan nan nan nan nan nan nan nan nan nan nan nan nan nan nan nan nan nan 18 9 nan nan nan nan nan nan nan nan nan nan nan nan nan nan nan nan nan nan nan nan nan nan 325 294
nan nan nan nan nan nan nan nan nan nan nan nan nan nan nan nan nan 4 nan nan nan nan nan nan nan nan nan nan nan nan nan nan nan nan nan nan nan nan nan nan nan 336 329 317
nan nan nan nan nan nan nan nan nan nan nan nan nan nan nan 300 328 nan nan nan nan 2 nan nan nan nan nan nan nan nan nan nan nan nan nan nan nan nan nan nan nan 336 314 315
nan nan nan nan nan nan nan nan nan nan nan nan nan nan nan nan nan nan nan nan nan nan nan nan nan nan nan nan nan nan nan nan nan nan nan nan 5 20 nan nan nan 343 331 328
nan nan nan nan nan nan nan nan nan nan nan nan nan nan nan nan nan nan nan nan nan 12 351 nan 2 nan nan nan nan nan nan nan nan nan nan nan 356 360 3 nan nan 318 325 323
nan nan nan nan nan nan nan nan nan nan nan nan nan nan nan nan nan nan nan nan nan 350 359 354 358 357 356 358 359 353 nan nan nan 2 4 357 342 330 338 nan 311 313 320 329
nan nan nan nan nan nan nan nan nan nan nan nan nan nan nan nan nan nan nan nan 326 332 338 342 347 349 349 345 349 349 351 352 356 8 356 354 355 337 332 303 301 301 305 304
nan nan nan nan nan nan nan nan nan nan nan nan nan nan nan nan nan nan nan nan nan 309 331 336 340 345 346 347 335 330 345 345 345 330 343 343 336 292 291 289 297 302 301 302
nan nan nan nan nan nan nan nan nan nan nan nan nan nan nan nan nan nan nan nan nan nan nan 312 329 345 351 336 316 312 269 232 271 324 330 319 299 290 289 274 300 303 300 300
nan nan nan nan nan nan nan nan nan nan nan nan nan nan nan nan nan nan nan nan nan 306 309 296 306 316 321 336 308 316 306 324 332 308 307 304 298 280 308 294 306 299 298 298
nan nan nan nan nan nan nan nan nan nan nan nan nan nan nan nan nan nan nan nan nan nan nan 292 301 293 293 299 326 328 315 323 316 311 300 309 308 316 306 299 298 296 297 299
nan nan nan nan nan nan nan nan nan nan nan nan nan nan nan nan nan nan nan nan nan nan nan 291 287 294 286 280 293 310 319 323 316 325 313 301 297 297 297 293 292 293 296 295
nan nan nan nan nan nan nan nan nan nan nan nan nan nan nan nan nan nan nan nan nan nan nan nan 306 300 274 274 276 283 294 299 304 301 298 294 290 288 287 289 289 288 289 289
nan nan nan nan nan nan nan nan nan nan nan nan nan nan nan nan nan nan nan nan nan nan nan nan nan 295 289 277 273 272 271 274 282 285 287 287 286 286 285 285 289 290 291 292
nan nan nan nan nan nan nan nan nan nan nan nan nan nan nan nan nan nan nan nan nan nan nan nan nan 294 292 292 285 277 273 271 273 277 282 285 284 283 284 287 287 nan nan nan
nan nan nan nan nan nan nan nan nan nan nan nan nan nan nan nan nan nan nan nan nan nan nan 282 283 281 291 292 290 282 280 277 274 274 278 283 286 285 283 nan nan nan nan nan
nan nan nan nan nan nan nan nan nan nan nan nan nan nan nan nan nan nan nan nan nan nan nan 279 281 291 290 293 295 290 284 281 281 282 282 283 284 nan nan nan nan nan nan nan
nan nan nan nan nan nan nan nan nan nan nan nan nan nan nan nan nan nan nan nan nan nan nan 281 286 287 290 291 292 293 290 288 286 284 nan nan nan nan nan nan nan nan nan nan
nan nan nan nan nan nan nan nan nan nan nan nan nan nan nan nan nan nan nan nan nan nan nan nan nan 286 289 287 287 nan nan nan nan nan nan nan nan nan nan nan nan nan nan nan
nan nan nan nan nan nan nan nan nan nan nan nan nan nan nan nan nan nan nan nan nan nan nan nan nan nan nan nan nan nan nan nan nan nan nan nan nan nan nan nan nan nan nan nan
nan nan nan nan nan nan nan nan nan nan nan nan nan nan nan nan nan nan nan nan nan nan nan nan nan nan nan nan nan nan nan nan nan nan nan nan nan nan nan nan nan nan nan nan
nan 247 250 nan nan nan nan nan nan nan nan nan nan nan nan 259 nan nan nan nan nan nan nan nan nan nan nan nan nan nan nan nan nan nan nan nan nan nan nan nan nan nan nan nan
246 262 nan nan nan nan nan nan nan nan nan nan nan nan nan nan nan nan nan nan nan nan nan nan nan nan nan nan nan nan nan nan nan nan nan nan nan nan nan nan nan nan nan nan
nan nan nan nan nan nan nan nan nan nan nan nan nan nan nan nan nan nan nan nan nan nan nan nan nan nan nan nan nan nan nan nan nan nan nan nan nan nan nan nan nan nan nan nan